This demonstration page uses our WeatherBlox Daily Observations layout. Learn more.

38.88101, -77.10428

Hourly Observations for March 2, 2018

Temp ( °F °C ) Dew Point ( °F °C ) Humidity (%) Winds ( mph kmh ) Pressure ( in mb ) Visibility ( mi km ) Precip ( " mm )
12:00 am 00:00 Cloudy with Light Drizzle 52 11.1 51 10.6 97 97 SW 9 15 29.44 997 3 4.82802 0 0.0254
12:20 am 00:20 Cloudy with Light Rain 52 11.1 51 10.6 97 97 WNW 10 17 29.47 998 6 9.65604 0.01 0.254
12:27 am 00:27 Cloudy with Light Rain 52 11.1 51 10.6 97 97 W 13 20 29.47 998 8 12.87472 0.01 0.254
12:32 am 00:32 Cloudy with Light Rain 53 11.7 51 10.6 93 93 WNW 13 20 29.47 998 10 16.0934 0.01 0.254
12:36 am 00:36 Cloudy 53 11.7 50 10 89 89 NW 12 19 29.47 998 10 16.0934 0.01 0.254
12:40 am 00:40 Cloudy 54 12.2 49 9.4 83 83 WNW 17 28 29.47 998 10 16.0934 0.01 0.254
12:52 am 00:52 Cloudy 52 11.1 39 3.9 61 61 WNW 28 44 29.47 998 10 16.0934 0.01 0.254
1:52 am 01:52 Mostly Cloudy 49 9.4 32 0 52 52 WNW 24 39 29.5 999 10 16.0934 0 0
2:52 am 02:52 Mostly Cloudy 47 8.3 28 -2.2 48 48 W 25 41 29.51 999 10 16.0934 0 0
3:39 am 03:39 Cloudy 45 7.2 27 -2.8 49 49 WNW 35 56 29.53 1000 10 16.0934 0 0
3:52 am 03:52 Cloudy 45 7.2 27 -2.8 49 49 WNW 29 46 29.52 1000 10 16.0934 0 0
4:52 am 04:52 Cloudy 44 6.7 25 -3.9 47 47 WNW 20 31 29.54 1000 10 16.0934 0 0
5:52 am 05:52 Cloudy with Light Rain 43 6.1 25 -3.9 49 49 WNW 30 48 29.54 1000 10 16.0934 0 0.0254
6:23 am 06:23 Cloudy with Light Rain/Snow 42 5.6 26 -3.3 53 53 NW 30 48 29.59 1002 10 16.0934 0 0.0254
6:52 am 06:52 Cloudy with Light Rain 40 4.4 29 -1.7 65 65 WNW 30 48 29.59 1002 10 16.0934 0 0.0254
7:52 am 07:52 Cloudy 41 5 26 -3.3 55 55 NNW 32 52 29.61 1003 10 16.0934 0 0.0254
8:52 am 08:52 Cloudy 42 5.6 26 -3.3 53 53 NW 29 46 29.66 1005 10 16.0934 0 0
9:52 am 09:52 Mostly Cloudy 44 6.7 25 -3.9 47 47 NW 20 31 29.68 1005 10 16.0934 0 0
10:52 am 10:52 Mostly Cloudy 44 6.7 25 -3.9 47 47 NW 31 50 29.71 1006 10 16.0934 0 0
11:52 am 11:52 Mostly Cloudy 45 7.2 25 -3.9 46 46 NW 26 43 29.73 1007 10 16.0934 0 0
12:17 pm 12:17 Mostly Cloudy 46 7.8 25 -3.9 44 44 NW 41 67 29.74 1007 10 16.0934 0 0
12:52 pm 12:52 Cloudy 45 7.2 24 -4.4 44 44 NW 40 65 29.74 1007 10 16.0934 0 0
1:52 pm 13:52 Cloudy 44 6.7 24 -4.4 45 45 NNW 36 57 29.75 1008 10 16.0934 0 0
2:52 pm 14:52 Cloudy 47 8.3 24 -4.4 41 41 NNW 44 70 29.78 1008 10 16.0934 0 0
3:52 pm 15:52 Cloudy 47 8.3 23 -5 39 39 NW 39 63 29.78 1009 10 16.0934 0 0
4:52 pm 16:52 Mostly Cloudy 48 8.9 22 -5.6 36 36 NW 37 59 29.81 1010 10 16.0934 0 0
5:52 pm 17:52 Mostly Cloudy 46 7.8 20 -6.7 35 35 NNW 33 54 29.86 1011 10 16.0934 0 0
6:52 pm 18:52 Mostly Cloudy 45 7.2 19 -7.2 35 35 NNW 31 50 29.91 1013 10 16.0934 0 0
7:52 pm 19:52 Cloudy 43 6.1 20 -6.7 40 40 NNW 37 59 29.93 1014 10 16.0934 0 0
8:52 pm 20:52 Cloudy 43 6.1 20 -6.7 40 40 NNW 25 41 29.96 1015 10 16.0934 0 0
9:52 pm 21:52 Cloudy 42 5.6 20 -6.7 41 41 NNW 30 48 29.99 1016 10 16.0934 0 0
10:52 pm 22:52 Cloudy 41 5 21 -6.1 45 45 NNW 22 35 29.99 1016 10 16.0934 0 0
11:52 pm 23:52 Mostly Cloudy 41 5 21 -6.1 45 45 NNW 24 39 30 1016 10 16.0934 0 0

Powered by AerisWeather